PLI203 SPJC-SPQU

Flight info

Callsign PLI203
Flight time 1h 3m
Altitude 35000
Route ASOXI2 ASOXI UM548 AKSOL UT222 ASUPA ASUP1B
Aircraft B721/M-V/N

Departure

Time 2026-05-03 23:21
Airport Jorge Chávez International Airport (SPJC)

Arrival

Time 2026-05-04 00:24
Airport Rodríguez Ballón International Airport (SPQU)
Time Latitude Longitude Altitude Speed Heading
2026-05-03 23:02 -12.03172 -77.11261 97 ft 0 kts 244°
2026-05-03 23:03 -12.03167 -77.11249 97 ft 2 kts 245°
2026-05-03 23:03 -12.03163 -77.11240 97 ft 0 kts 243°
2026-05-03 23:09 -12.03162 -77.11240 97 ft 1 kts 243°
2026-05-03 23:09 -12.03156 -77.11226 97 ft 2 kts 244°
2026-05-03 23:09 -12.03154 -77.11211 97 ft 2 kts 293°
2026-05-03 23:09 -12.03161 -77.11201 97 ft 0 kts 331°
2026-05-03 23:10 -12.03156 -77.11205 97 ft 4 kts 327°
2026-05-03 23:10 -12.03120 -77.11224 97 ft 4 kts 333°
2026-05-03 23:10 -12.03109 -77.11230 97 ft 0 kts 333°
2026-05-03 23:14 -12.03106 -77.11231 97 ft 2 kts 333°
2026-05-03 23:15 -12.03056 -77.11256 97 ft 13 kts 334°
2026-05-03 23:15 -12.02935 -77.11317 97 ft 23 kts 333°
2026-05-03 23:15 -12.02770 -77.11399 94 ft 27 kts 334°
2026-05-03 23:15 -12.02588 -77.11490 89 ft 29 kts 334°
2026-05-03 23:16 -12.02404 -77.11581 83 ft 28 kts 334°
2026-05-03 23:16 -12.02232 -77.11666 77 ft 25 kts 334°
2026-05-03 23:16 -12.02071 -77.11745 77 ft 25 kts 334°
2026-05-03 23:16 -12.01920 -77.11822 77 ft 20 kts 332°
2026-05-03 23:17 -12.01829 -77.11815 77 ft 12 kts 52°
2026-05-03 23:17 -12.01779 -77.11809 77 ft 8 kts 337°
2026-05-03 23:17 -12.01717 -77.11839 77 ft 12 kts 334°
2026-05-03 23:17 -12.01625 -77.11884 75 ft 15 kts 335°
2026-05-03 23:18 -12.01559 -77.11871 74 ft 7 kts 76°
2026-05-03 23:18 -12.01551 -77.11846 74 ft 3 kts 60°
2026-05-03 23:18 -12.01538 -77.11824 74 ft 4 kts 61°
2026-05-03 23:18 -12.01520 -77.11771 74 ft 11 kts 95°
2026-05-03 23:19 -12.01570 -77.11736 75 ft 0 kts 156°
2026-05-03 23:19 -12.01571 -77.11736 75 ft 0 kts 156°
2026-05-03 23:20 -12.01659 -77.11695 77 ft 43 kts 155°
2026-05-03 23:20 -12.02189 -77.11430 94 ft 118 kts 154°
2026-05-03 23:20 -12.03086 -77.10982 246 ft 155 kts 156°
2026-05-03 23:20 -12.04103 -77.10484 659 ft 163 kts 156°
2026-05-03 23:21 -12.05150 -77.09971 1169 ft 164 kts 155°
2026-05-03 23:21 -12.06230 -77.09417 1452 ft 179 kts 154°
2026-05-03 23:21 -12.07389 -77.08820 1793 ft 191 kts 154°
2026-05-03 23:21 -12.08621 -77.08186 2231 ft 198 kts 154°
2026-05-03 23:22 -12.11214 -77.06854 3068 ft 212 kts 154°
2026-05-03 23:22 -12.12566 -77.06162 3657 ft 216 kts 154°
2026-05-03 23:22 -12.13946 -77.05456 4306 ft 217 kts 154°
2026-05-03 23:23 -12.15326 -77.04754 4950 ft 217 kts 154°
2026-05-03 23:23 -12.16697 -77.04059 5544 ft 218 kts 154°
2026-05-03 23:23 -12.18045 -77.03281 6051 ft 226 kts 136°
2026-05-03 23:23 -12.18849 -77.01847 6750 ft 230 kts 113°
2026-05-03 23:24 -12.19675 -77.00444 7541 ft 229 kts 130°
2026-05-03 23:24 -12.20829 -76.99260 8325 ft 229 kts 140°
2026-05-03 23:24 -12.22122 -76.98229 8821 ft 242 kts 143°
2026-05-03 23:24 -12.23591 -76.97124 8972 ft 270 kts 144°
2026-05-03 23:25 -12.25256 -76.95900 9019 ft 300 kts 144°
2026-05-03 23:25 -12.27066 -76.94596 9041 ft 326 kts 145°
2026-05-03 23:25 -12.29040 -76.93198 9057 ft 349 kts 146°
2026-05-03 23:25 -12.31144 -76.91727 9163 ft 364 kts 146°
2026-05-03 23:26 -12.33221 -76.90290 10063 ft 353 kts 146°
2026-05-03 23:26 -12.35213 -76.88924 11264 ft 334 kts 146°
2026-05-03 23:26 -12.37175 -76.87584 12116 ft 327 kts 146°
2026-05-03 23:26 -12.39081 -76.86285 12793 ft 325 kts 146°
2026-05-03 23:27 -12.41019 -76.84966 13424 ft 325 kts 146°
2026-05-03 23:27 -12.42942 -76.83659 14293 ft 326 kts 146°
2026-05-03 23:27 -12.44863 -76.82352 15189 ft 327 kts 146°
2026-05-03 23:27 -12.46447 -76.81274 15858 ft 329 kts 146°
2026-05-03 23:28 -12.48409 -76.79936 16593 ft 333 kts 146°
2026-05-03 23:28 -12.50387 -76.78584 17274 ft 338 kts 146°
2026-05-03 23:28 -12.52399 -76.77205 17947 ft 342 kts 146°
2026-05-03 23:28 -12.54439 -76.75841 18615 ft 346 kts 147°
2026-05-03 23:29 -12.56530 -76.74466 19281 ft 349 kts 147°
2026-05-03 23:29 -12.58636 -76.73086 19920 ft 352 kts 147°
2026-05-03 23:29 -12.60727 -76.71717 20519 ft 355 kts 147°
2026-05-03 23:29 -12.62890 -76.70302 21106 ft 358 kts 147°
2026-05-03 23:30 -12.65036 -76.68897 21665 ft 361 kts 147°
2026-05-03 23:30 -12.67201 -76.67473 22206 ft 364 kts 147°
2026-05-03 23:30 -12.69359 -76.65983 22733 ft 367 kts 146°
2026-05-03 23:30 -12.71540 -76.64451 23249 ft 370 kts 146°
2026-05-03 23:31 -12.73692 -76.62932 23737 ft 373 kts 145°
2026-05-03 23:31 -12.75904 -76.61368 24220 ft 376 kts 145°
2026-05-03 23:31 -12.77868 -76.59568 24611 ft 378 kts 129°
2026-05-03 23:31 -12.79514 -76.57353 25039 ft 381 kts 126°
2026-05-03 23:32 -12.81069 -76.55094 25464 ft 383 kts 125°
2026-05-03 23:32 -12.82625 -76.52780 25889 ft 386 kts 124°
2026-05-03 23:32 -12.84176 -76.50459 26300 ft 388 kts 124°
2026-05-03 23:32 -12.85739 -76.48113 26697 ft 390 kts 124°
2026-05-03 23:33 -12.87303 -76.45765 27076 ft 393 kts 124°
2026-05-03 23:33 -12.88881 -76.43392 27444 ft 395 kts 124°
2026-05-03 23:33 -12.90481 -76.40987 27804 ft 397 kts 124°
2026-05-03 23:33 -12.92059 -76.38612 28148 ft 399 kts 124°
2026-05-03 23:34 -12.93675 -76.36179 28490 ft 401 kts 124°
2026-05-03 23:34 -12.95287 -76.33752 28820 ft 404 kts 124°
2026-05-03 23:34 -12.96890 -76.31335 29138 ft 406 kts 124°
2026-05-03 23:34 -12.98530 -76.28862 29452 ft 407 kts 124°
2026-05-03 23:35 -13.00066 -76.26544 29737 ft 409 kts 124°
2026-05-03 23:35 -13.01701 -76.24075 30031 ft 411 kts 124°
2026-05-03 23:35 -13.03360 -76.21568 30321 ft 413 kts 124°
2026-05-03 23:35 -13.04999 -76.19091 30597 ft 415 kts 124°
2026-05-03 23:36 -13.06669 -76.16566 30870 ft 417 kts 124°
2026-05-03 23:36 -13.08323 -76.14062 31133 ft 418 kts 124°
2026-05-03 23:36 -13.09992 -76.11534 31389 ft 420 kts 124°
2026-05-03 23:36 -13.11664 -76.09000 31638 ft 422 kts 124°
2026-05-03 23:37 -13.13313 -76.06500 31876 ft 423 kts 124°
2026-05-03 23:37 -13.15002 -76.03937 32112 ft 425 kts 124°
2026-05-03 23:37 -13.16673 -76.01399 32339 ft 426 kts 124°
2026-05-03 23:37 -13.18344 -75.98861 32559 ft 428 kts 124°
2026-05-03 23:38 -13.20036 -75.96288 32775 ft 429 kts 124°
2026-05-03 23:38 -13.21739 -75.93698 32986 ft 431 kts 124°
2026-05-03 23:38 -13.23479 -75.91049 33195 ft 432 kts 124°
2026-05-03 23:38 -13.25141 -75.88519 33389 ft 433 kts 124°
2026-05-03 23:39 -13.26869 -75.85883 33585 ft 435 kts 124°
2026-05-03 23:39 -13.28593 -75.83255 33774 ft 436 kts 124°
2026-05-03 23:39 -13.30320 -75.80619 33958 ft 437 kts 124°
2026-05-03 23:39 -13.32057 -75.77966 34137 ft 438 kts 124°
2026-05-03 23:40 -13.33745 -75.75404 34303 ft 439 kts 125°
2026-05-03 23:40 -13.35681 -75.72840 34461 ft 441 kts 131°
2026-05-03 23:40 -13.37760 -75.70440 34584 ft 443 kts 132°
2026-05-03 23:40 -13.39878 -75.68068 34658 ft 446 kts 133°
2026-05-03 23:41 -13.42048 -75.65657 34816 ft 447 kts 133°
2026-05-03 23:41 -13.44207 -75.63263 34907 ft 450 kts 133°
2026-05-03 23:41 -13.48494 -75.58508 34950 ft 459 kts 133°
2026-05-03 23:42 -13.48894 -75.58064 34950 ft 459 kts 133°
2026-05-03 23:42 -13.50717 -75.56040 34948 ft 463 kts 133°
2026-05-03 23:43 -13.55307 -75.51079 34943 ft 472 kts 134°
2026-05-03 23:43 -13.60035 -75.46160 34942 ft 481 kts 135°
2026-05-03 23:44 -13.64883 -75.41126 34942 ft 488 kts 135°
2026-05-03 23:44 -13.69791 -75.36026 34942 ft 495 kts 135°
2026-05-03 23:45 -13.74755 -75.30861 35026 ft 499 kts 134°
2026-05-03 23:45 -13.79743 -75.25666 35108 ft 502 kts 134°
2026-05-03 23:46 -13.84736 -75.20460 35091 ft 507 kts 134°
2026-05-03 23:46 -13.89735 -75.15241 35010 ft 511 kts 134°
2026-05-03 23:47 -13.94864 -75.09881 34934 ft 514 kts 134°
2026-05-03 23:47 -13.99888 -75.04625 35069 ft 513 kts 134°
2026-05-03 23:48 -14.04944 -74.99329 35184 ft 512 kts 134°
2026-05-03 23:48 -14.09984 -74.94042 35284 ft 512 kts 134°
2026-05-03 23:49 -14.14969 -74.88808 35384 ft 512 kts 134°
2026-05-03 23:49 -14.20008 -74.83510 35417 ft 513 kts 134°
2026-05-03 23:50 -14.24123 -74.79178 35401 ft 514 kts 134°
2026-05-03 23:50 -14.30031 -74.72951 35391 ft 498 kts 134°
2026-05-03 23:51 -14.34846 -74.67869 35390 ft 481 kts 134°
2026-05-03 23:51 -14.39493 -74.62958 35391 ft 466 kts 134°
2026-05-03 23:52 -14.44072 -74.58113 35392 ft 452 kts 134°
2026-05-03 23:52 -14.48481 -74.53443 35392 ft 438 kts 134°
2026-05-03 23:53 -14.52671 -74.48999 35392 ft 426 kts 134°
2026-05-03 23:53 -14.56839 -74.44460 35399 ft 430 kts 133°
2026-05-03 23:54 -14.60948 -74.39941 35401 ft 436 kts 133°
2026-05-03 23:54 -14.65203 -74.35253 35401 ft 442 kts 133°
2026-05-03 23:55 -14.69489 -74.30428 35400 ft 448 kts 131°
2026-05-03 23:55 -14.73662 -74.25508 35401 ft 453 kts 131°
2026-05-03 23:56 -14.77652 -74.20274 35400 ft 459 kts 126°
2026-05-03 23:56 -14.81494 -74.14842 35401 ft 464 kts 126°
2026-05-03 23:57 -14.85401 -74.09285 35400 ft 469 kts 126°
2026-05-03 23:57 -14.89338 -74.03674 35400 ft 474 kts 126°
2026-05-03 23:58 -14.93245 -73.98096 35400 ft 478 kts 126°
2026-05-03 23:58 -14.97305 -73.92292 35400 ft 482 kts 126°
2026-05-03 23:59 -15.01319 -73.86545 35399 ft 485 kts 126°
2026-05-03 23:59 -15.05313 -73.80750 35399 ft 487 kts 125°
2026-05-04 00:00 -15.09253 -73.74892 35399 ft 490 kts 125°
2026-05-04 00:00 -15.13148 -73.69078 35399 ft 492 kts 125°
2026-05-04 00:01 -15.17120 -73.63140 35399 ft 493 kts 124°
2026-05-04 00:01 -15.21102 -73.57177 35398 ft 495 kts 124°
2026-05-04 00:02 -15.25111 -73.51165 35393 ft 496 kts 124°
2026-05-04 00:02 -15.29127 -73.45133 35385 ft 498 kts 124°
2026-05-04 00:03 -15.33113 -73.39136 35375 ft 499 kts 124°
2026-05-04 00:03 -15.37121 -73.33097 35370 ft 499 kts 124°
2026-05-04 00:04 -15.41132 -73.27045 35371 ft 500 kts 124°
2026-05-04 00:04 -15.45185 -73.20918 35371 ft 500 kts 124°
2026-05-04 00:05 -15.49193 -73.14849 35371 ft 501 kts 124°
2026-05-04 00:05 -15.53181 -73.08803 35273 ft 488 kts 124°
2026-05-04 00:06 -15.55095 -73.05897 35088 ft 477 kts 124°
2026-05-04 00:06 -15.56977 -73.03037 34904 ft 466 kts 124°
2026-05-04 00:06 -15.58833 -73.00215 34688 ft 457 kts 124°
2026-05-04 00:06 -15.60636 -72.97472 34435 ft 449 kts 124°
2026-05-04 00:07 -15.62415 -72.94763 34176 ft 441 kts 124°
2026-05-04 00:07 -15.64153 -72.92116 33918 ft 434 kts 124°
2026-05-04 00:07 -15.65870 -72.89497 33651 ft 427 kts 124°
2026-05-04 00:07 -15.67567 -72.86908 33227 ft 424 kts 124°
2026-05-04 00:08 -15.69255 -72.84331 32760 ft 420 kts 124°
2026-05-04 00:08 -15.70912 -72.81799 32277 ft 416 kts 124°
2026-05-04 00:08 -15.72573 -72.79259 31788 ft 413 kts 124°
2026-05-04 00:08 -15.74221 -72.76736 31275 ft 410 kts 124°
2026-05-04 00:09 -15.75849 -72.74244 30765 ft 407 kts 124°
2026-05-04 00:09 -15.77440 -72.71806 30262 ft 405 kts 124°
2026-05-04 00:09 -15.79054 -72.69332 29749 ft 402 kts 124°
2026-05-04 00:09 -15.80637 -72.66903 29242 ft 400 kts 124°
2026-05-04 00:10 -15.82215 -72.64481 28734 ft 397 kts 124°
2026-05-04 00:10 -15.83802 -72.62043 28220 ft 395 kts 124°
2026-05-04 00:10 -15.85365 -72.59639 27711 ft 393 kts 124°
2026-05-04 00:10 -15.86922 -72.57244 27200 ft 391 kts 124°
2026-05-04 00:11 -15.88474 -72.54855 26689 ft 389 kts 124°
2026-05-04 00:11 -15.90011 -72.52487 26181 ft 387 kts 124°
2026-05-04 00:11 -15.91564 -72.50095 25665 ft 386 kts 124°
2026-05-04 00:11 -15.93088 -72.47743 25080 ft 380 kts 124°
2026-05-04 00:12 -15.94576 -72.45451 24240 ft 371 kts 124°
2026-05-04 00:12 -15.96034 -72.43226 23396 ft 362 kts 124°
2026-05-04 00:12 -15.97479 -72.41049 22550 ft 355 kts 123°
2026-05-04 00:12 -15.98906 -72.38938 21709 ft 348 kts 123°
2026-05-04 00:13 -16.00334 -72.36868 20864 ft 342 kts 123°
2026-05-04 00:13 -16.01749 -72.34855 20023 ft 336 kts 123°
2026-05-04 00:13 -16.03147 -72.32883 19184 ft 331 kts 124°
2026-05-04 00:13 -16.04508 -72.30965 18352 ft 325 kts 124°
2026-05-04 00:14 -16.05858 -72.29041 17396 ft 321 kts 124°
2026-05-04 00:14 -16.07167 -72.27133 16348 ft 320 kts 127°
2026-05-04 00:14 -16.08396 -72.25177 15306 ft 320 kts 124°
2026-05-04 00:14 -16.09603 -72.23160 14246 ft 319 kts 123°
2026-05-04 00:15 -16.10738 -72.21262 13316 ft 318 kts 123°
2026-05-04 00:15 -16.11917 -72.19315 12503 ft 310 kts 123°
2026-05-04 00:15 -16.13096 -72.17396 11716 ft 302 kts 123°
2026-05-04 00:15 -16.14237 -72.15556 11036 ft 303 kts 124°
2026-05-04 00:16 -16.15457 -72.13592 10513 ft 325 kts 123°
2026-05-04 00:16 -16.16741 -72.11536 10575 ft 326 kts 124°
2026-05-04 00:16 -16.17932 -72.09684 11869 ft 295 kts 126°
2026-05-04 00:16 -16.19169 -72.07861 12110 ft 309 kts 124°
2026-05-04 00:17 -16.20413 -72.05913 12223 ft 321 kts 124°
2026-05-04 00:17 -16.21658 -72.03931 12342 ft 318 kts 124°
2026-05-04 00:17 -16.22897 -72.01945 12462 ft 315 kts 124°
2026-05-04 00:17 -16.24105 -71.99997 12581 ft 312 kts 124°
2026-05-04 00:18 -16.25301 -71.98055 12664 ft 311 kts 123°
2026-05-04 00:18 -16.26486 -71.96133 12689 ft 311 kts 123°
2026-05-04 00:18 -16.27701 -71.94177 12695 ft 313 kts 123°
2026-05-04 00:18 -16.28925 -71.92231 12646 ft 316 kts 123°
2026-05-04 00:19 -16.30170 -71.90278 12594 ft 315 kts 123°
2026-05-04 00:19 -16.31419 -71.88335 12541 ft 312 kts 123°
2026-05-04 00:19 -16.32525 -71.86354 12475 ft 306 kts 107°
2026-05-04 00:19 -16.32807 -71.84145 12434 ft 300 kts 92°
2026-05-04 00:20 -16.32849 -71.81948 12363 ft 298 kts 90°
2026-05-04 00:20 -16.32871 -71.79771 12049 ft 284 kts 91°
2026-05-04 00:20 -16.32910 -71.77778 11789 ft 260 kts 91°
2026-05-04 00:20 -16.32972 -71.75911 11477 ft 245 kts 92°
2026-05-04 00:21 -16.33055 -71.74139 11132 ft 234 kts 93°
2026-05-04 00:21 -16.33152 -71.72466 10823 ft 218 kts 94°
2026-05-04 00:21 -16.33250 -71.70937 10693 ft 198 kts 94°
2026-05-04 00:21 -16.33341 -71.69563 10681 ft 167 kts 94°
2026-05-04 00:22 -16.33480 -71.68377 10336 ft 172 kts 99°
2026-05-04 00:22 -16.33636 -71.67081 10112 ft 176 kts 94°
2026-05-04 00:22 -16.33755 -71.65781 9940 ft 178 kts 99°
2026-05-04 00:22 -16.33876 -71.64497 9698 ft 172 kts 90°
2026-05-04 00:23 -16.33856 -71.63220 9161 ft 174 kts 89°
2026-05-04 00:23 -16.33859 -71.61962 8841 ft 168 kts 91°
2026-05-04 00:23 -16.33876 -71.60714 8613 ft 167 kts 91°
2026-05-04 00:23 -16.33934 -71.59499 8432 ft 163 kts 93°
2026-05-04 00:24 -16.33995 -71.58315 8305 ft 158 kts 92°
2026-05-04 00:24 -16.34049 -71.57244 8359 ft 124 kts 93°
2026-05-04 00:24 -16.34092 -71.56467 8409 ft 89 kts 94°
2026-05-04 00:24 -16.34108 -71.56095 8422 ft 25 kts 94°
2026-05-04 00:25 -16.34118 -71.55939 8420 ft 21 kts 94°
2026-05-04 00:25 -16.34126 -71.55809 8417 ft 9 kts 93°
2026-05-04 00:25 -16.34147 -71.55743 8416 ft 10 kts 169°
2026-05-04 00:25 -16.34211 -71.55798 8414 ft 16 kts 240°
2026-05-04 00:26 -16.34275 -71.55911 8407 ft 20 kts 237°
2026-05-04 00:26 -16.34358 -71.56042 8388 ft 21 kts 238°
2026-05-04 00:26 -16.34379 -71.56165 8382 ft 17 kts 275°
2026-05-04 00:26 -16.34370 -71.56321 8363 ft 26 kts 273°
2026-05-04 00:27 -16.34361 -71.56484 8347 ft 11 kts 274°
2026-05-04 00:27 -16.34357 -71.56567 8347 ft 11 kts 273°
2026-05-04 00:27 -16.34369 -71.56644 8347 ft 10 kts 218°
2026-05-04 00:27 -16.34393 -71.56664 8347 ft 0 kts 219°